Pratt, KS

10:36 AM CDT on July 26, 2017 (GMT -0500)
Pratt Industrial

Weather History for KPTT - October, 2013

Change the Weather History Date:

Tuesday, October 22, 2013

  Actual Average (KP28) Record (KP28)
Temperature  
Mean Temperature 55 °F -  
Max Temperature 69 °F 67 °F 92 °F (1927)
Min Temperature 41 °F 43 °F 23 °F (1982)
Degree Days  
Heating Degree Days 10    
Growing Degree Days 5 (Base 50)    
Moisture  
Dew Point 36 °F    
Average Humidity 54    
Maximum Humidity 81    
Minimum Humidity 28    
Precipitation  
Precipitation 0.00 in - - ()
Sea Level Pressure  
Sea Level Pressure 30.07 in    
Wind  
Wind Speed 10 mph (NW)    
Max Wind Speed 22 mph    
Max Gust Speed 29 mph    
Visibility 10 miles    
Events      
Averages and records for this station are not official NWS values.
T = Trace of Precipitation, MM = Missing Value Source: NWS Daily Summary

Daily Weather History Graph

Daily Weather History Graph

Search for Another Location

Airport or City:

Trip Planner

Search our weather history database for the weather conditions in past years. The results will help you decide how hot, cold, wet, or windy it might be!

Date:

Astronomy

Oct. 22, 2013 Rise Set
Actual Time 7:50 AM CDT 6:47 PM CDT
Civil Twilight 7:23 AM CDT 7:14 PM CDT
Nautical Twilight 6:53 AM CDT 7:45 PM CDT
Astronomical Twilight 6:22 AM CDT 8:15 PM CDT
Moon 9:32 PM CDT (10/22) 11:17 AM CDT (10/22)
Length of Visible Light 11h 50m
Length of Day
10h 57m
Waning Gibbous, 86% of the Moon is Illuminated
Oct 22
Waning Gibbous
Oct 26
Last Quarter
Nov 3
New
Nov 9
First Quarter
Nov 17
Full

Hourly Weather History & Observations

Time (CDT) Temp. Windchill Dew Point Humidity Pressure Visibility Wind Dir Wind Speed Gust Speed Precip Events Conditions
12:15 AM 46.4 °F 41.9 °F 35.6 °F 66% 30.05 in 10.0 mi SW 9.2 mph - N/A   Clear
12:35 AM 46.4 °F 41.9 °F 35.6 °F 66% 30.05 in 10.0 mi SW 9.2 mph - N/A   Clear
12:55 AM 46.4 °F 42.4 °F 35.6 °F 66% 30.05 in 10.0 mi SW 8.1 mph - N/A   Clear
1:15 AM 46.4 °F 42.9 °F 35.6 °F 66% 30.05 in 10.0 mi WSW 6.9 mph - N/A   Clear
1:35 AM 44.6 °F 40.2 °F 35.6 °F 71% 30.05 in 10.0 mi WSW 8.1 mph - N/A   Clear
1:55 AM 46.4 °F 42.9 °F 35.6 °F 66% 30.04 in 10.0 mi WSW 6.9 mph - N/A   Clear
2:15 AM 44.6 °F 40.2 °F 35.6 °F 71% 30.05 in 10.0 mi West 8.1 mph - N/A   Clear
2:35 AM 42.8 °F 38.6 °F 35.6 °F 76% 30.05 in 10.0 mi West 6.9 mph - N/A   Clear
2:55 AM 44.6 °F 40.2 °F 35.6 °F 71% 30.05 in 10.0 mi West 8.1 mph - N/A   Clear
3:15 AM 44.6 °F 39.7 °F 35.6 °F 71% 30.06 in 10.0 mi West 9.2 mph - N/A   Clear
3:35 AM 46.4 °F 41.9 °F 35.6 °F 66% 30.05 in 10.0 mi WNW 9.2 mph - N/A   Clear
3:55 AM 44.6 °F 39.7 °F 35.6 °F 71% 30.05 in 10.0 mi West 9.2 mph - N/A   Clear
4:15 AM 44.6 °F 39.2 °F 35.6 °F 71% 30.04 in 10.0 mi West 10.4 mph - N/A   Clear
4:35 AM 44.6 °F 39.7 °F 33.8 °F 66% 30.03 in 10.0 mi West 9.2 mph - N/A   Clear
4:55 AM 42.8 °F 37.5 °F 33.8 °F 70% 30.03 in 10.0 mi West 9.2 mph - N/A   Clear
5:15 AM 42.8 °F 37.5 °F 35.6 °F 76% 30.03 in 10.0 mi West 9.2 mph - N/A   Clear
5:35 AM 42.8 °F 36.6 °F 35.6 °F 76% 30.03 in 10.0 mi West 11.5 mph - N/A   Clear
5:55 AM 42.8 °F 38.0 °F 35.6 °F 76% 30.03 in 10.0 mi West 8.1 mph - N/A   Clear
6:15 AM 42.8 °F 37.5 °F 35.6 °F 76% 30.03 in 10.0 mi WNW 9.2 mph - N/A   Clear
6:35 AM 42.8 °F 37.5 °F 35.6 °F 76% 30.03 in 10.0 mi WNW 9.2 mph - N/A   Clear
6:55 AM 42.8 °F 37.0 °F 33.8 °F 70% 30.03 in 10.0 mi WNW 10.4 mph - N/A   Clear
7:15 AM 42.8 °F 36.6 °F 33.8 °F 70% 30.04 in 10.0 mi WNW 11.5 mph - N/A   Clear
7:35 AM 41.0 °F 34.7 °F 33.8 °F 76% 30.05 in 10.0 mi WNW 10.4 mph - N/A   Clear
7:55 AM 41.0 °F 35.8 °F 33.8 °F 76% 30.05 in 10.0 mi WNW 8.1 mph - N/A   Clear
8:15 AM 42.8 °F 37.5 °F 35.6 °F 76% 30.06 in 10.0 mi NW 9.2 mph - N/A   Clear
8:35 AM 44.6 °F 39.7 °F 35.6 °F 71% 30.07 in 10.0 mi NW 9.2 mph - N/A   Clear
8:55 AM 46.4 °F 41.5 °F 37.4 °F 71% 30.07 in 10.0 mi NW 10.4 mph - N/A   Clear
9:15 AM 50.0 °F - 37.4 °F 62% 30.08 in 10.0 mi NW 10.4 mph - N/A   Clear
9:35 AM 51.8 °F - 37.4 °F 58% 30.08 in 10.0 mi NW 9.2 mph - N/A   Clear
9:55 AM 55.4 °F - 39.2 °F 54% 30.09 in 10.0 mi NW 10.4 mph - N/A   Clear
10:15 AM 59.0 °F - 39.2 °F 48% 30.09 in 10.0 mi NNW 8.1 mph - N/A   Clear
10:35 AM 60.8 °F - 39.2 °F 45% 30.09 in 10.0 mi NNW 10.4 mph - N/A   Clear
10:55 AM 60.8 °F - 37.4 °F 42% 30.09 in 10.0 mi NW 9.2 mph - N/A   Clear
11:15 AM 62.6 °F - 37.4 °F 39% 30.09 in 10.0 mi NNW 9.2 mph - N/A   Clear
11:35 AM 64.4 °F - 37.4 °F 37% 30.09 in 10.0 mi NNW 10.4 mph - N/A   Clear
11:55 AM 64.4 °F - 37.4 °F 37% 30.09 in 10.0 mi NNW 9.2 mph - N/A   Clear
12:15 PM 64.4 °F - 35.6 °F 34% 30.10 in 10.0 mi NNW 15.0 mph 18.4 mph N/A   Clear
12:35 PM 66.2 °F - 37.4 °F 35% 30.10 in 10.0 mi NNW 10.4 mph - N/A   Clear
12:55 PM 66.2 °F - 35.6 °F 32% 30.09 in 10.0 mi NNW 16.1 mph - N/A   Clear
1:15 PM 68.0 °F - 37.4 °F 33% 30.09 in 10.0 mi NNW 13.8 mph 19.6 mph N/A   Clear
1:35 PM 68.0 °F - 35.6 °F 30% 30.08 in 10.0 mi NW 17.3 mph 23.0 mph N/A   Clear
1:55 PM 69.8 °F - 35.6 °F 28% 30.08 in 10.0 mi NNW 19.6 mph 26.5 mph N/A   Clear
2:15 PM 68.0 °F - 35.6 °F 30% 30.07 in 10.0 mi NW 15.0 mph 26.5 mph N/A   Clear
2:35 PM 69.8 °F - 35.6 °F 28% 30.07 in 10.0 mi WNW 21.9 mph 28.8 mph N/A   Clear
2:55 PM 69.8 °F - 35.6 °F 28% 30.05 in 10.0 mi NW 18.4 mph 27.6 mph N/A   Clear
3:15 PM 69.8 °F - 35.6 °F 28% 30.05 in 10.0 mi NNW 15.0 mph 23.0 mph N/A   Clear
3:35 PM 68.0 °F - 35.6 °F 30% 30.05 in 10.0 mi North 20.7 mph 25.3 mph N/A   Clear
3:55 PM 69.8 °F - 35.6 °F 28% 30.05 in 10.0 mi NNW 18.4 mph - N/A   Clear
4:15 PM 69.8 °F - 35.6 °F 28% 30.05 in 10.0 mi NNW 21.9 mph 26.5 mph N/A   Clear
4:35 PM 69.8 °F - 35.6 °F 28% 30.06 in 10.0 mi North 12.7 mph 19.6 mph N/A   Clear
4:55 PM 68.0 °F - 35.6 °F 30% 30.05 in 10.0 mi NNW 13.8 mph - N/A   Clear
5:15 PM 68.0 °F - 35.6 °F 30% 30.05 in 10.0 mi NNW 11.5 mph 18.4 mph N/A   Clear
5:35 PM 68.0 °F - 35.6 °F 30% 30.05 in 10.0 mi NNW 15.0 mph - N/A   Clear
5:55 PM 66.2 °F - 35.6 °F 32% 30.05 in 10.0 mi North 10.4 mph - N/A   Clear
6:15 PM 64.4 °F - 35.6 °F 34% 30.05 in 10.0 mi North 11.5 mph - N/A   Clear
6:35 PM 60.8 °F - 37.4 °F 42% 30.06 in 10.0 mi North 8.1 mph - N/A   Clear
6:55 PM 59.0 °F - 37.4 °F 45% 30.07 in 10.0 mi North 6.9 mph - N/A   Clear
7:15 PM 59.0 °F - 37.4 °F 45% 30.07 in 10.0 mi North 5.8 mph - N/A   Clear
7:35 PM 59.0 °F - 37.4 °F 45% 30.08 in 10.0 mi NNE 5.8 mph - N/A   Clear
7:55 PM 55.4 °F - 37.4 °F 51% 30.08 in 10.0 mi NNE 3.5 mph - N/A   Clear
8:15 PM 55.4 °F - 37.4 °F 51% 30.09 in 10.0 mi NE 3.5 mph - N/A   Clear
8:35 PM 55.4 °F - 37.4 °F 51% 30.09 in 10.0 mi NE 3.5 mph - N/A   Clear
8:55 PM 53.6 °F - 39.2 °F 58% 30.10 in 10.0 mi NNE 6.9 mph - N/A   Clear
9:35 PM 53.6 °F - 37.4 °F 54% 30.10 in 10.0 mi NNE 6.9 mph - N/A   Clear
10:15 PM 48.2 °F - 37.4 °F 66% 30.12 in 10.0 mi NNE 3.5 mph - N/A   Clear
10:35 PM 48.2 °F - 37.4 °F 66% 30.12 in 10.0 mi NNE 3.5 mph - N/A   Clear
10:55 PM 46.4 °F - 39.2 °F 76% 30.12 in 10.0 mi Calm Calm - N/A   Clear
11:15 PM 44.6 °F - 37.4 °F 76% 30.12 in 10.0 mi Calm Calm - N/A   Clear
11:35 PM 44.6 °F - 37.4 °F 76% 30.12 in 10.0 mi Calm Calm - N/A   Clear
11:55 PM 44.6 °F - 39.2 °F 81% 30.12 in 10.0 mi Calm Calm - N/A   Clear